Flag for U.S.A. Weather past 2 weeks in Bentonville, Arkansas, U.S.A.

Now
36 °F

Sunny.


Feels Like: 33 °F
Forecast: 15 / 33 °F
Wind: 3 mph from North

Location: Bentonville Weather Observing Station

Current Time: Mar 5, 2015 at 5:20:01 PM

Latest Report: Mar 5, 2015 at 4:55 PM


Visibility: 10 mi

Pressure: 30.50 "Hg

Humidity: 38%

Dew point: 12 °F

Location of BentonvilleLocation

Historic Weather in Bentonville — Graph

°F

Bentonville temperature yesterday

Maximum temperature yesterday: 46 °F (at 12:15 AM)
Minimum temperature yesterday: 21 °F (at 4:35 PM)
Average temperature yesterday: 29 °F

Past Weeks' High & Low Weather Summary

 TemperatureHumidityPressure
High52 °F (Mar 3, 3:55 PM)93% (Feb 20, 5:55 PM)30.66 "Hg (Feb 20, 5:55 PM)
Low10 °F (Feb 19, 1:55 AM)32% (Feb 19, 2:55 PM)29.74 "Hg (Feb 20, 11:55 PM)
Average29 °F69%30.23 "Hg
* Reported Feb 18 3:15 PM — Mar 5 3:55 PM, Bentonville, Weather by CustomWeather, © 2015

Note: Actual official high and low records may vary slightly from our data, if they occured in-between our weather recording intervals... More about our weather records

Advertising

Bentonville weather history for previous 24 hours

 ConditionsComfort  
Time TempWeatherWind HumidityBarometerVisibility
3:55 PM
Thu, Mar 5
36 °FSunny.7 mph44%30.49 "Hg10 mi
3:35 PM36 °FSunny.8 mph41%30.49 "Hg10 mi
2:55 PM36 °FSunny.9 mph41%30.49 "Hg10 mi
2:35 PM36 °FSunny.9 mph38%30.49 "Hg10 mi
2:15 PM36 °FSunny.10 mph41%30.50 "Hg10 mi
1:55 PM36 °FSunny.7 mph38%30.50 "Hg10 mi
1:35 PM34 °FSunny.7 mph41%30.51 "Hg10 mi
1:15 PM34 °FSunny.5 mph41%30.52 "Hg10 mi
12:55 PM34 °FSunny.7 mph41%30.53 "Hg10 mi
11:55 AM30 °FSunny.8 mph43%30.55 "Hg10 mi
11:35 AM30 °FSunny.8 mph43%30.55 "Hg10 mi
11:15 AM28 °FSunny.5 mph43%30.55 "Hg10 mi
10:55 AM28 °FSunny.8 mph40%30.55 "Hg10 mi
10:35 AM28 °FSunny.5 mph43%30.55 "Hg10 mi
10:15 AM27 °FSunny.3 mph50%30.55 "Hg10 mi
9:55 AM27 °FSunny.7 mph50%30.55 "Hg10 mi
9:35 AM25 °FSunny.5 mph54%30.55 "Hg10 mi
9:15 AM25 °FSunny.8 mph54%30.55 "Hg10 mi
8:55 AM23 °FSunny.8 mph58%30.54 "Hg10 mi
8:35 AM21 °FSunny.6 mph63%30.53 "Hg10 mi
8:15 AM21 °FSunny.6 mph63%30.53 "Hg10 mi
7:55 AM19 °FSunny.No wind68%30.51 "Hg10 mi
7:35 AM18 °FSunny.No wind73%30.50 "Hg10 mi
7:15 AM16 °FSunny.No wind73%30.49 "Hg10 mi
6:55 AM16 °FSunny.No wind73%30.48 "Hg10 mi
6:35 AM18 °FClear.No wind68%30.47 "Hg10 mi
6:15 AM18 °FClear.6 mph68%30.46 "Hg10 mi
5:55 AM18 °FClear.No wind68%30.47 "Hg10 mi
5:35 AM18 °FClear.3 mph73%30.45 "Hg10 mi
5:15 AM19 °FClear.5 mph68%30.43 "Hg10 mi
4:55 AM19 °FClear.3 mph68%30.43 "Hg10 mi
4:35 AM19 °FClear.3 mph68%30.42 "Hg10 mi
4:15 AM21 °FClear.No wind63%30.42 "Hg10 mi
3:55 AM21 °FClear.6 mph63%30.40 "Hg10 mi
3:35 AM21 °FClear.6 mph63%30.39 "Hg10 mi
3:15 AM21 °FPassing clouds.6 mph68%30.40 "Hg10 mi
2:55 AM21 °FClear.6 mph68%30.41 "Hg10 mi
2:35 AM21 °FClear.6 mph68%30.40 "Hg10 mi
2:15 AM21 °FClear.5 mph68%30.40 "Hg10 mi
1:55 AM21 °FClear.8 mph68%30.37 "Hg10 mi
1:35 AM21 °FClear.8 mph68%30.37 "Hg10 mi
1:15 AM21 °FPassing clouds.8 mph68%30.35 "Hg10 mi
12:55 AM21 °FOvercast.9 mph68%30.35 "Hg10 mi
12:35 AM21 °FPassing clouds.9 mph68%30.35 "Hg10 mi
11:55 PM
Wed, Mar 4
21 °FPassing clouds.8 mph74%30.35 "Hg10 mi
11:35 PM21 °FPartly cloudy.8 mph74%30.35 "Hg10 mi
11:15 PM21 °FMostly cloudy.9 mph80%30.33 "Hg10 mi
10:55 PM21 °FMostly cloudy.8 mph80%30.34 "Hg10 mi
10:35 PM21 °FMostly cloudy.7 mph74%30.35 "Hg10 mi
10:15 PM21 °FMostly cloudy.8 mph80%30.35 "Hg10 mi
9:35 PM21 °FMostly cloudy.10 mph80%30.33 "Hg4 mi
9:15 PM21 °FMostly cloudy.10 mph80%30.34 "Hg4 mi
8:55 PM21 °FMostly cloudy.10 mph80%30.33 "Hg8 mi
8:15 PM21 °FOvercast.14 mph74%30.30 "Hg4 mi
7:55 PM21 °FOvercast.12 mph80%30.32 "Hg3 mi
7:35 PM21 °FMostly cloudy.10 mph80%30.31 "Hg5 mi
7:15 PM21 °FOvercast.15 mph80%30.29 "Hg5 mi
6:55 PM21 °FPassing clouds.16 mph80%30.27 "Hg10 mi
6:35 PM21 °FPassing clouds.12 mph80%30.25 "Hg10 mi
6:15 PM21 °FOvercast.13 mph80%30.25 "Hg8 mi
5:55 PM21 °FMore clouds than sun.15 mph80%30.24 "Hg9 mi
5:35 PM21 °FBroken clouds.13 mph80%30.24 "Hg10 mi
5:15 PM21 °FMostly cloudy.13 mph80%30.22 "Hg10 mi
Weather by CustomWeather, © 2015

See weather overviewHow to use our weather pages